Content
SEND FEEDBACK

Daily
Averages
Monthly
Summary
United States of America

ASHEVILLE, NORTH CAROLINA


Home > North America > United States > North Carolina
Elevation: 2240 feet     Latitude: 35 36N     Longitude: 082 32W

WEATHER
 
SELECT A DAY
Number of Records: 225,823;   Date Range: 1/1/95 - 7/29/14
 
SHARE

PRINT THIS DATA

[ ← Previous Day ]
WEATHER ALMANAC - APRIL 26, 2013
[ Next Day → ]
[ °C ]   °F
Weather ElementAverageHighLow
Temperature55.1 °F64.9 °F (5:54 pm)41 °F (6:54 am)
Dewpoint32 °F37.9 °F (11:54 pm)28 °F (1:54 am)
Humidity43.3 %65 % (6:54 am)29 % (2:54 pm)
Barometer30.35 in30.40 in (8:54 am)30.31 in (3:54 am)
Wind Speed4.9 mph11.5 mph (3:54 pm)
Wind Gust20.7 mph (2:54 pm)
Weather ElementAverage
Visibility10 mi
Wind DirectionESE (117 °)

Weather ElementTotal
Precipitation---
Heating Degree Days12.1 (Base 65)
Growing Degree Days3 (Base 50)
Averaged from 23 records on April 26, 2013
WEATHER CONDITIONS BREAKOUT
WIND DIRECTION BREAKOUT
WEATHER BY HOUR - APRIL 26, 2013
[ °C ]   °F
Local TimeTemperatureDewpointHumidityBarometerVisibilityWind DirectionWind SpeedGust SpeedPrecipitationEventsConditions
1:54 AM46.9 °F28.0 °F48 %30.32 in10.0 miNorth (360°)4.6 mphClear
2:54 AM44.6 °F30.2 °F57 %30.34 in10.0 miNorth (360°)4.6 mphClear
3:54 AM44.1 °F30.0 °F58 %30.31 in10.0 miCalmClear
4:54 AM42.1 °F30.0 °F62 %30.32 in10.0 miNE (40°)3.5 mphClear
5:54 AM42.1 °F30.0 °F62 %30.33 in10.0 miNNE (30°)3.5 mphClear
6:54 AM41.0 °F30.0 °F65 %30.35 in10.0 miCalmClear
7:54 AM45.0 °F30.9 °F58 %30.38 in10.0 miNorth (10°)5.8 mphClear
8:54 AM50.0 °F30.9 °F48 %30.40 in10.0 miNorth (10°)4.6 mphClear
9:54 AM54.0 °F28.9 °F38 %30.40 in10.0 miNNW (330°)6.9 mphClear
10:54 AM59.0 °F33.1 °F38 %30.38 in10.0 miSW (220°)4.6 mphClear
11:54 AM60.1 °F30.9 °F33 %30.39 in10.0 miSSE (160°)10.4 mph17.3 mphClear
12:54 PM61.0 °F32.0 °F34 %30.38 in10.0 miCalmClear
1:54 PM63.0 °F30.9 °F30 %30.37 in10.0 miSSE (160°)9.2 mph17.3 mphClear
2:54 PM64.0 °F30.9 °F29 %30.36 in10.0 miSE (140°)8.1 mph20.7 mphClear
3:54 PM64.0 °F32.0 °F30 %30.33 in10.0 miSSE (150°)11.5 mph18.4 mphClear
4:54 PM64.0 °F32.0 °F30 %30.31 in10.0 miESE (120°)6.9 mphClear
5:54 PM64.9 °F33.1 °F31 %30.31 in10.0 miSSE (150°)9.2 mphClear
6:54 PM63.0 °F33.1 °F33 %30.33 in10.0 miVariable5.8 mphClear
7:54 PM62.1 °F33.1 °F34 %30.35 in10.0 miESE (120°)4.6 mphScattered Clouds
8:54 PM60.1 °F34.0 °F38 %30.34 in10.0 miVariable4.6 mphPartly Cloudy
9:54 PM59.0 °F36.0 °F42 %30.33 in10.0 miCalmPartly Cloudy
10:54 PM57.9 °F37.0 °F46 %30.32 in10.0 miCalmOvercast
11:54 PM55.9 °F37.9 °F51 %30.34 in10.0 miNNW (330°)3.5 mphOvercast
Hourly data recorded from KAVL, located miles away from Asheville, North Carolina







STORIES FROM OUR PARTNERS